(289820) = 2005 KD3 = 2007 WL48

Discovered at Mount Lemmon on 2005-05-17 by Mt. Lemmon Survey.

Orbit

Orbit type: Main Belt

Note: WebGL enabled browser required.

epoch2024-03-31.0
epoch JD2460400.5
perihelion date2019-11-09.61937
perihelion JD2458797.11937
argument of perihelion (°)47.31523
ascending node (°)205.12939
inclination (°)5.56917
eccentricity0.0502719
perihelion distance (AU)2.6700620
Tisserand w.r.t. Jupiter3.3
ΔV w.r.t. Earth (km/sec)10.3
semimajor axis (AU)2.8113962
mean anomaly (°)335.24121
mean daily motion (°/day)0.20908400
aphelion distance (AU)2.953
period (years)4.71
P-vector [x]-0.30310102
P-vector [y]-0.90024596
P-vector [z]-0.31254919
Q-vector [x]0.95206686
Q-vector [y]-0.30025125
Q-vector [z]-0.05846267
absolute magnitude16.86
phase slope0.15
uncertainty0
referenceMPEC 2024-D82
observations used184
oppositions12
arc length (days)6875
first opposition used2005
last opposition used2024
residual rms (arc-secs)0.79
perturbers coarse indicatorM-v
perturbers precise indicator003Ek
first observation date used2005-04-16.0
last observation date used2024-02-11.0
computer nameMPCLINUX
JD of orbit computation2456789.246876
perihelion JD uncertainty (days)3.7218E-04
argument of perihelion uncertainty (°)8.8690E-05
ascending node uncertainty (°)4.3449E-05
inclination uncertainty (°)7.0849E-06
eccentricity uncertainty 4.1896E-08
perihelion distance uncertainty (AU)1.2638E-07
Minimum Orbit Intersection Distances (in AU)
for orbit epoch: 2460400.5, reference: E2024-D82
Mercury2.20796
Venus1.94646
Earth1.6598
Mars1.1012
Jupiter2.04456
Saturn6.10312
Uranus15.6382
Neptune26.8951

Observations

180 total observations over interval: 2005 04 16.35553 – 2024 02 11.33481
These data are available for download (format description).

Date (UT) J2000 RA J2000 Dec Magn Location Ref
2005 04 16.35553 14 45 22.11 -14 08 07.3 20.6 V 691 – Steward Observatory, Kitt Peak-Spacewatch MPS 229014
2005 04 16.37392 14 45 21.31 -14 08 00.8 20.9 V 691 – Steward Observatory, Kitt Peak-Spacewatch MPS 229014
2005 04 16.39226 14 45 20.49 -14 07 54.8 20.8 V 691 – Steward Observatory, Kitt Peak-Spacewatch MPS 229014
2005 04 30.20132 14 34 43.76 -12 46 13.9 20.6 V 691 – Steward Observatory, Kitt Peak-Spacewatch MPS 137980
2005 04 30.21912 14 34 42.90 -12 46 07.7 20.4 V 691 – Steward Observatory, Kitt Peak-Spacewatch MPS 137980
2005 04 30.23960 14 34 41.86 -12 46 00.1 20.4 V 691 – Steward Observatory, Kitt Peak-Spacewatch MPS 137980
2005 05 17.26749 14 21 40.20 -11 08 38.2 20.1 R G96 – Mt. Lemmon Survey MPS 135435
2005 05 17.27271 14 21 39.97 -11 08 36.6 20.7 R G96 – Mt. Lemmon Survey MPS 135435
2005 05 17.27762 14 21 39.74 -11 08 34.9 20.7 R G96 – Mt. Lemmon Survey MPS 135435
2005 05 17.28250 14 21 39.58 -11 08 33.1 21.0 R G96 – Mt. Lemmon Survey MPS 135435
2005 05 19.24968 14 20 21.36 -10 58 43.8 20.0 R G96 – Mt. Lemmon Survey MPS 135435
2005 05 19.25631 14 20 21.10 -10 58 42.6 19.9 R G96 – Mt. Lemmon Survey MPS 135435
2005 05 19.26293 14 20 20.80 -10 58 40.3 20.9 R G96 – Mt. Lemmon Survey MPS 135435
2005 05 19.26956 14 20 20.54 -10 58 38.3 19.9 R G96 – Mt. Lemmon Survey MPS 135435
2006 09 19.12406 21 34 38.61 -07 40 14.6 21.1 V 691 – Steward Observatory, Kitt Peak-Spacewatch MPS 229014
2006 09 19.13989 21 34 38.19 -07 40 19.4 21.7 V 691 – Steward Observatory, Kitt Peak-Spacewatch MPS 229014
2006 09 19.15572 21 34 37.77 -07 40 24.1 21.5 V 691 – Steward Observatory, Kitt Peak-Spacewatch MPS 229014
2007 10 20.37859 04 18 01.58 +17 39 30.1 21.1 V G96 – Mt. Lemmon Survey MPS 229014
2007 10 20.38521 04 18 01.44 +17 39 28.8 20.9 V G96 – Mt. Lemmon Survey MPS 229014
2007 10 20.39185 04 18 01.26 +17 39 27.7 21.4 V G96 – Mt. Lemmon Survey MPS 229014
2007 10 20.39840 04 18 01.08 +17 39 26.5 21.2 V G96 – Mt. Lemmon Survey MPS 229014
2007 11 08.21867 04 06 11.75 +16 27 23.1   691 – Steward Observatory, Kitt Peak-Spacewatch MPS 229014
2007 11 08.23633 04 06 10.94 +16 27 18.7   691 – Steward Observatory, Kitt Peak-Spacewatch MPS 229014
2007 11 08.25400 04 06 10.06 +16 27 14.3   691 – Steward Observatory, Kitt Peak-Spacewatch MPS 229014
2007 11 20.31706 03 55 52.03 +15 36 24.2 20.1 V G96 – Mt. Lemmon Survey MPS 229311
2007 11 20.32262 03 55 51.70 +15 36 22.8 20.3 V G96 – Mt. Lemmon Survey MPS 229311
2007 11 20.32817 03 55 51.38 +15 36 21.7 20.4 V G96 – Mt. Lemmon Survey MPS 229311
2007 11 20.33388 03 55 51.09 +15 36 19.9 20.2 V G96 – Mt. Lemmon Survey MPS 229311
2007 11 21.27960 03 55 00.73 +15 32 24.0 20.5 V G96 – Mt. Lemmon Survey MPS 229311
2007 11 21.28184 03 55 00.66 +15 32 23.0 20.4 V G96 – Mt. Lemmon Survey MPS 229311
2007 11 21.28412 03 55 00.48 +15 32 22.6 20.1 V G96 – Mt. Lemmon Survey MPS 229311
2007 11 21.28635 03 55 00.40 +15 32 22.3 20.1 V G96 – Mt. Lemmon Survey MPS 229311
2010 06 16.362946 16 33 08.275 -15 07 35.77 21.28 g F51 – Pan-STARRS 1, Haleakala MPS 337335
2010 06 16.374321 16 33 07.731 -15 07 34.02 21.29 g F51 – Pan-STARRS 1, Haleakala MPS 337335
2010 07 05.21543 16 21 41.61 -14 41 54.0 20.6 V G96 – Mt. Lemmon Survey MPS 337335
2010 07 05.22258 16 21 41.43 -14 41 54.2 20.1 V G96 – Mt. Lemmon Survey MPS 337335
2010 07 05.22978 16 21 41.22 -14 41 53.4 20.6 V G96 – Mt. Lemmon Survey MPS 337335
2010 07 05.23693 16 21 41.04 -14 41 53.3 20.8 V G96 – Mt. Lemmon Survey MPS 337335
2011 08 31.55026 23 54 32.839 +04 24 23.90 21.3 g F51 – Pan-STARRS 1, Haleakala MPS 390575
2011 08 31.57316 23 54 31.949 +04 24 17.06 20.9 r F51 – Pan-STARRS 1, Haleakala MPS 390575
2011 08 31.58355 23 54 31.536 +04 24 13.48 21.3 r F51 – Pan-STARRS 1, Haleakala MPS 390575
2011 09 02.43380 23 53 20.047 +04 14 43.85 21.4 w F51 – Pan-STARRS 1, Haleakala MPS 390575
2011 09 02.44808 23 53 19.459 +04 14 39.35 21.3 w F51 – Pan-STARRS 1, Haleakala MPS 390575
2011 09 02.46245 23 53 18.877 +04 14 34.86 21.3 w F51 – Pan-STARRS 1, Haleakala MPS 390575
2011 09 06.48893 23 50 34.053 +03 52 22.98 21.0 i F51 – Pan-STARRS 1, Haleakala MPS 392526
2011 09 06.50118 23 50 33.518 +03 52 18.74 20.9 i F51 – Pan-STARRS 1, Haleakala MPS 392526
2011 09 19.31589 23 41 02.18 +02 31 17.6 20.5 V G96 – Mt. Lemmon Survey MPS 392526
2011 09 19.32281 23 41 01.82 +02 31 14.7 20.4 V G96 – Mt. Lemmon Survey MPS 392526
2011 09 19.32986 23 41 01.50 +02 31 11.9 20.1 V G96 – Mt. Lemmon Survey MPS 392526
2011 09 19.33686 23 41 01.17 +02 31 08.8 20.2 V G96 – Mt. Lemmon Survey MPS 392526
2011 09 24.29745 23 37 16.82 +01 57 26.7 20.5 V G96 – Mt. Lemmon Survey MPS 394153
2011 09 24.30269 23 37 16.57 +01 57 24.8 20.6 V G96 – Mt. Lemmon Survey MPS 394153
2011 09 24.30788 23 37 16.32 +01 57 22.5 20.6 V G96 – Mt. Lemmon Survey MPS 394154
2011 09 24.31311 23 37 16.06 +01 57 20.5 20.5 V G96 – Mt. Lemmon Survey MPS 394154
2011 10 16.41377 23 23 35.189 -00 22 26.31 21.4 i F51 – Pan-STARRS 1, Haleakala MPS 396159
2011 10 16.42558 23 23 34.858 -00 22 30.06 21.3 i F51 – Pan-STARRS 1, Haleakala MPS 396159
2011 10 16.42854 23 23 34.779 -00 22 30.96 21.3 i F51 – Pan-STARRS 1, Haleakala MPS 396159
2011 10 16.43150 23 23 34.719 -00 22 31.75 22.0 i F51 – Pan-STARRS 1, Haleakala MPS 396159
2014 02 28.45783 11 47 32.281 -03 43 59.15 20.8 w F51 – Pan-STARRS 1, Haleakala MPS 505232
2014 02 28.46989 11 47 31.764 -03 43 55.41 20.9 w F51 – Pan-STARRS 1, Haleakala MPS 505232
2014 02 28.48197 11 47 31.261 -03 43 51.55 20.8 w F51 – Pan-STARRS 1, Haleakala MPS 505232
2014 03 24.40194 11 29 32.997 -01 10 26.01 20.7 w F51 – Pan-STARRS 1, Haleakala MPS 508339
2014 03 24.41424 11 29 32.425 -01 10 20.79 20.6 w F51 – Pan-STARRS 1, Haleakala MPS 508339
2014 03 24.42652 11 29 31.854 -01 10 15.78 20.7 w F51 – Pan-STARRS 1, Haleakala MPS 508339
2014 03 24.43884 11 29 31.287 -01 10 10.68 20.4 w F51 – Pan-STARRS 1, Haleakala MPS 508339
2014 04 24.29776 11 13 57.941 +01 47 31.98 20.8 w F51 – Pan-STARRS 1, Haleakala MPS 512286
2014 04 24.32280 11 13 57.673 +01 47 38.09 21.3 w F51 – Pan-STARRS 1, Haleakala MPS 512286
2014 04 24.33544 11 13 57.483 +01 47 40.99 21.2 w F51 – Pan-STARRS 1, Haleakala MPS 512286
2016 08 10.51842 01 45 56.586 +12 53 36.71 22.0 w F51 – Pan-STARRS 1, Haleakala MPS 724781
2016 08 10.53132 01 45 56.845 +12 53 37.47 22.0 w F51 – Pan-STARRS 1, Haleakala MPS 724781
2016 08 10.54428 01 45 57.096 +12 53 38.25 21.8 w F51 – Pan-STARRS 1, Haleakala MPS 724781
2016 08 10.55722 01 45 57.343 +12 53 39.11 22.1 w F51 – Pan-STARRS 1, Haleakala MPS 724781
2016 10 06.51162 01 31 15.842 +10 14 00.58 20.8 w F51 – Pan-STARRS 1, Haleakala MPS 733932
2016 10 06.52416 01 31 15.251 +10 13 55.96 20.8 w F51 – Pan-STARRS 1, Haleakala MPS 733932
2016 10 06.53665 01 31 14.661 +10 13 51.18 20.8 w F51 – Pan-STARRS 1, Haleakala MPS 733932
2016 10 06.54917 01 31 14.063 +10 13 46.36 20.7 w F51 – Pan-STARRS 1, Haleakala MPS 733932
2016 10 19.20214 01 21 19.61 +08 51 39.3 20.1 V G96 – Mt. Lemmon Survey MPS 737275
2016 10 19.21087 01 21 19.18 +08 51 35.9 20.1 V G96 – Mt. Lemmon Survey MPS 737275
2016 10 19.21515 01 21 19.00 +08 51 33.9 20.4 V G96 – Mt. Lemmon Survey MPS 737275
2016 10 19.21943 01 21 18.80 +08 51 32.5 20.5 V G96 – Mt. Lemmon Survey MPS 737275
2016 10 22.22130 01 18 59.21 +08 31 57.2 20.8 G G45 – Space Surveillance Telescope, Atom Site MPS 1609017
2016 10 22.32029 01 18 54.52 +08 31 19.7 20.8 G G45 – Space Surveillance Telescope, Atom Site MPS 1609017
2016 10 22.36907 01 18 52.29 +08 31 00.0 20.7 G G45 – Space Surveillance Telescope, Atom Site MPS 1609017
2016 10 22.42002 01 18 49.88 +08 30 40.4 20.6 G G45 – Space Surveillance Telescope, Atom Site MPS 1609017
2016 10 27.29370 01 15 12.15 +07 59 39.9 20.9 V G96 – Mt. Lemmon Survey MPS 739291
2016 10 27.29923 01 15 11.92 +07 59 37.1 20.8 V G96 – Mt. Lemmon Survey MPS 739291
2016 10 27.30351 01 15 11.71 +07 59 35.4 20.6 V G96 – Mt. Lemmon Survey MPS 739291
2016 10 27.30917 01 15 11.47 +07 59 33.8 21.6 V G96 – Mt. Lemmon Survey MPS 739291
2016 11 07.23008 01 08 07.41 +06 56 43.9 21.1 V G96 – Mt. Lemmon Survey MPS 744679
2016 11 07.23612 01 08 07.21 +06 56 41.9 21.0 V G96 – Mt. Lemmon Survey MPS 744679
2016 11 07.24212 01 08 07.01 +06 56 39.9 20.7 V G96 – Mt. Lemmon Survey MPS 744679
